Date,TemperatureHighF,TemperatureAvgF,TemperatureLowF,DewpointHighF,DewpointAvgF,DewpointLowF,HumidityHigh,HumidityAvg,HumidityLow,PressureMaxIn,PressureMinIn,WindSpeedMaxMPH,WindSpeedAvgMPH,GustSpeedMaxMPH,PrecipitationSumIn
2013-1-1,38.6,31.3,24.1,36.0,27.9,19.0,92,87,79,30.29,30.04,11,4,0,0.00
2013-1-2,38.0,28.5,19.7,26.0,20.0,-99.9,84,73,60,30.31,30.19,12,-9,0,0.00
2013-1-3,45.5,34.6,25.6,30.0,24.0,21.0,85,67,41,30.46,30.30,6,1,0,0.00
2013-1-4,49.2,35.8,24.1,26.0,22.7,19.0,85,62,37,30.47,30.31,14,2,0,0.00
2013-1-5,48.0,40.7,35.0,32.0,29.0,22.0,77,64,47,30.30,30.15,16,3,0,0.00
2013-1-6,49.4,37.9,30.7,29.0,21.3,16.0,78,54,27,30.41,30.26,10,2,0,0.00
2013-1-7,52.2,39.5,27.6,28.0,24.0,18.0,72,55,38,30.33,30.09,12,3,0,0.00
2013-1-8,55.4,43.9,32.5,44.0,33.5,24.0,90,68,44,30.16,30.02,15,3,0,0.10
2013-1-9,54.4,50.1,46.1,47.0,43.4,39.0,92,79,58,30.30,30.12,15,5,0,0.01
2013-1-10,55.7,52.0,49.8,53.0,48.0,43.0,92,86,71,30.12,29.77,11,4,0,0.13
2013-1-11,69.4,56.3,45.1,47.0,44.1,42.0,90,67,38,29.83,29.64,18,7,0,0.00
2013-1-12,60.2,39.8,26.6,49.0,28.8,20.0,86,68,27,30.07,29.73,17,5,0,0.13
2013-1-13,31.3,24.8,19.5,20.0,11.4,-99.9,76,63,51,30.39,30.01,14,-30,0,0.00
2013-1-14,35.9,26.7,20.6,17.0,13.8,10.0,73,60,39,30.50,30.34,13,3,0,0.00
2013-1-15,34.4,27.4,21.4,19.0,14.5,11.0,79,61,38,30.34,30.20,11,3,0,0.00
2013-1-16,48.2,34.2,20.3,18.0,15.1,12.0,74,48,26,30.23,30.10,8,1,0,0.00
2013-1-17,53.6,41.9,32.7,31.0,25.8,18.0,74,54,36,30.47,30.19,13,3,0,0.00
2013-1-18,58.3,45.1,31.9,32.0,27.9,24.0,75,54,30,30.48,30.17,19,6,0,0.00
2013-1-19,65.5,52.1,43.9,35.0,33.3,32.0,64,50,30,30.17,30.04,14,5,0,0.00
2013-1-20,62.6,48.5,33.5,41.0,29.8,15.0,67,49,40,30.27,30.07,15,6,0,0.00
2013-1-21,42.2,32.1,25.0,15.0,12.7,9.0,58,46,27,30.42,30.27,15,5,0,0.00
2013-1-22,52.6,36.4,23.5,27.0,20.9,15.0,70,55,36,30.31,30.17,12,3,0,0.00
2013-1-23,62.3,45.8,31.5,42.0,32.7,23.0,73,61,43,30.24,30.09,12,3,0,0.00
2013-1-24,45.8,40.9,36.6,36.0,23.8,19.0,69,51,41,30.26,30.09,15,6,0,0.00
2013-1-25,49.8,39.3,33.1,29.0,21.6,-99.9,64,53,43,30.24,30.11,9,-19,0,0.00
2013-1-26,54.5,44.9,33.8,35.0,28.5,25.0,74,54,38,30.23,30.07,12,4,0,0.00
2013-1-27,59.9,53.1,45.5,55.0,47.9,34.0,91,83,61,30.07,29.83,18,10,0,0.00
2013-1-28,74.0,67.9,57.8,61.0,60.0,55.0,89,76,61,29.88,29.70,24,10,0,0.00
2013-1-29,70.9,59.0,42.6,62.0,53.6,40.0,91,83,65,29.69,29.39,17,6,0,0.63
2013-1-30,42.2,36.5,29.3,39.0,23.2,-99.9,89,63,49,30.07,29.56,19,-16,0,0.00
2013-1-31,50.7,33.9,23.0,27.0,20.4,8.0,79,60,30,30.46,30.02,15,5,0,0.00
2013-2-1,43.3,29.9,17.3,19.0,10.0,0.0,58,45,29,30.48,30.16,11,3,0,0.00
2013-2-2,58.1,43.5,30.1,31.0,25.2,19.0,69,51,31,30.26,30.16,9,1,0,0.00
2013-2-3,56.7,48.4,40.8,30.0,24.7,19.0,62,41,24,30.29,29.91,11,3,0,0.00
2013-2-4,68.3,56.1,45.5,39.0,31.9,27.0,60,41,25,29.92,29.77,14,5,0,0.00
2013-2-5,68.3,50.7,34.9,41.0,32.5,27.0,80,54,23,30.01,29.89,9,1,0,0.00
2013-2-6,64.3,53.7,42.9,48.0,38.7,32.0,73,58,46,30.03,29.86,18,5,0,0.00
2013-2-7,59.9,52.1,43.6,53.0,46.2,36.0,88,80,70,30.11,29.80,16,6,0,0.00
2013-2-8,52.3,42.3,34.0,36.0,31.7,29.0,84,68,43,30.31,30.12,11,3,0,0.00
2013-2-9,43.9,40.3,38.3,41.0,33.0,-99.9,89,78,66,30.15,29.73,15,-5,0,0.12
2013-2-10,61.8,52.5,43.8,50.0,33.1,21.0,92,55,22,30.03,29.61,20,7,0,0.10
2013-2-11,53.9,44.1,35.3,25.0,23.0,19.0,63,45,27,30.21,30.02,9,2,0,0.00
2013-2-12,42.6,38.6,33.7,37.0,29.5,24.0,90,71,50,30.10,29.93,12,5,0,0.13
2013-2-13,55.9,42.3,34.1,37.0,29.2,-99.9,91,67,36,30.04,29.91,12,-19,0,0.00
2013-2-14,60.7,47.3,35.2,33.0,28.7,24.0,66,50,34,30.18,29.94,11,3,0,0.00
2013-2-15,46.0,37.9,30.1,29.0,16.6,8.0,70,45,23,30.39,30.18,14,4,0,0.00
2013-2-16,44.3,35.4,26.7,25.0,14.2,6.0,72,44,25,30.39,30.07,12,3,0,0.00
2013-2-17,68.8,51.3,33.8,32.0,26.4,19.0,70,42,21,30.07,29.73,19,8,0,0.00
2013-2-18,61.5,54.2,39.2,50.0,36.2,24.0,70,52,35,30.12,29.59,25,11,0,0.00
2013-2-19,52.0,38.0,30.1,23.0,11.5,-99.9,67,43,28,30.34,30.12,11,-72,0,0.00
2013-2-20,38.8,34.9,32.8,32.0,27.1,19.0,90,75,47,30.27,30.00,10,2,0,0.45
2013-2-21,35.3,31.2,28.5,33.0,22.2,-99.9,91,83,79,30.00,29.67,15,-60,0,0.57
2013-2-22,39.1,29.8,22.1,21.0,17.0,15.0,76,60,41,30.16,29.96,12,3,0,0.00
2013-2-23,45.8,33.7,22.4,23.0,18.9,15.0,75,57,35,30.13,29.94,6,1,0,0.00
2013-2-24,59.3,44.7,30.9,37.0,30.3,22.0,75,59,40,29.96,29.73,17,4,0,0.00
2013-2-25,45.1,39.6,33.5,36.0,33.7,31.0,90,80,62,29.79,29.43,20,8,0,0.36
2013-2-26,41.5,37.0,32.9,32.0,30.6,28.0,91,78,65,29.91,29.46,16,6,0,0.11
2013-2-27,47.9,37.9,32.4,30.0,26.2,22.0,80,65,37,30.14,29.90,16,5,0,0.00
2013-2-28,47.4,38.0,31.6,28.0,26.0,24.0,76,63,45,30.22,30.14,11,5,0,0.00
2013-3-1,38.2,35.2,31.0,25.0,22.1,15.0,65,59,49,30.32,30.19,12,5,0,0.00
2013-3-2,46.7,35.9,27.9,19.0,16.8,14.0,63,47,28,30.39,30.19,12,3,0,0.00
2013-3-3,62.3,47.1,32.2,31.0,23.3,-99.9,61,42,27,30.18,29.66,21,-3,0,0.00
2013-3-4,73.2,57.7,45.4,42.0,36.8,31.0,67,48,27,29.91,29.51,13,6,0,0.00
2013-3-5,49.4,42.2,35.9,35.0,21.7,13.0,82,47,27,30.36,29.92,20,7,0,0.07
2013-3-6,50.5,38.8,27.8,24.0,17.4,-99.9,66,45,25,30.44,30.20,10,-9,0,0.00
2013-3-7,64.7,51.1,37.2,29.0,25.8,24.0,63,41,22,30.21,30.04,18,7,0,0.00
2013-3-8,59.0,53.1,47.0,40.0,34.6,28.0,67,50,40,30.15,29.93,18,8,0,0.00
2013-3-9,62.6,58.3,53.3,56.0,47.5,35.0,90,69,41,29.93,29.61,29,9,0,0.26
2013-3-10,56.0,42.6,32.7,52.0,34.4,-99.9,90,75,65,30.03,29.59,19,-5,0,0.02
2013-3-11,52.5,39.9,29.7,23.0,18.3,11.0,70,46,19,30.04,29.95,15,4,0,0.00
2013-3-12,60.2,48.5,38.2,36.0,24.1,15.0,62,40,24,30.31,30.01,12,3,0,0.00
2013-3-13,56.7,45.3,34.6,24.0,20.5,17.0,60,39,23,30.48,30.32,8,2,0,0.00
2013-3-14,77.9,59.6,41.9,41.0,32.1,23.0,54,37,23,30.31,30.03,18,6,0,0.00
2013-3-15,83.0,67.7,54.7,48.0,41.5,-99.9,66,42,22,30.05,29.70,19,-4,0,0.00
2013-3-16,76.7,63.6,49.2,48.0,43.4,38.0,65,49,35,29.79,29.66,17,6,0,0.00
2013-3-17,48.9,44.1,41.3,42.0,38.5,36.0,89,81,65,29.81,29.68,18,7,0,0.00
2013-3-18,61.5,49.3,40.2,41.0,33.0,22.0,89,60,25,30.02,29.67,13,4,0,0.00
2013-3-19,59.8,49.2,39.1,28.0,25.0,20.0,61,41,24,30.22,29.99,17,4,0,0.00
2013-3-20,52.5,43.9,36.5,32.0,23.1,14.0,77,48,24,30.39,30.06,15,3,0,0.00
2013-3-21,42.5,38.7,37.5,33.0,23.0,-99.9,81,58,41,30.05,29.73,14,-17,0,0.04
2013-3-22,46.0,41.0,36.3,38.0,35.5,33.0,90,81,69,29.90,29.77,9,4,0,0.46
2013-3-23,43.1,40.6,38.8,41.0,36.2,-99.9,92,87,79,29.89,29.71,11,-7,0,0.00
2013-3-24,40.2,35.4,32.2,36.0,25.1,17.0,91,68,41,30.18,29.76,22,7,0,0.01
2013-3-25,39.3,33.9,28.8,21.0,17.5,13.0,67,52,37,30.39,30.17,15,5,0,0.00
2013-3-26,51.6,38.2,26.4,22.0,18.4,14.0,71,48,25,30.46,30.27,10,2,0,0.00
2013-3-27,66.1,50.1,34.3,30.0,25.1,21.0,63,41,24,30.27,30.06,20,7,0,0.00
2013-3-28,72.3,59.8,47.3,49.0,40.4,27.0,62,49,36,30.15,30.01,16,7,0,0.00
2013-3-29,71.1,61.8,54.7,57.0,52.8,49.0,89,73,57,30.09,30.01,11,2,0,0.21
2013-3-30,75.3,64.0,55.4,59.0,54.9,51.0,89,73,55,30.03,29.77,15,5,0,0.19
2013-3-31,71.5,62.2,53.5,56.0,45.5,38.0,89,58,31,29.96,29.81,15,4,0,0.00
2013-4-1,62.3,52.5,45.1,43.0,38.8,29.0,75,61,43,30.13,29.93,19,6,0,0.00
2013-4-2,44.8,40.6,38.3,38.0,34.8,29.0,90,80,54,30.23,30.12,20,8,0,0.13
2013-4-3,45.4,36.9,39.1,37.0,17.6,-99.9,90,64,50,30.23,30.14,13,-112,0,0.13
2013-4-4,60.7,49.7,39.2,39.0,34.8,29.0,89,61,32,30.18,30.06,11,2,0,0.10
2013-4-5,69.9,56.6,40.2,43.0,39.2,35.0,85,56,28,30.18,29.91,15,4,0,0.00
2013-4-6,76.5,65.1,55.4,50.0,44.6,-99.9,67,50,34,29.90,29.72,27,-3,0,0.00
2013-4-7,66.4,59.9,58.1,57.0,46.4,-99.9,83,70,70,29.83,29.66,22,-50,0,0.00
2013-4-8,74.4,68.1,62.7,60.0,58.1,56.0,86,71,60,29.71,29.58,20,8,0,0.00
2013-4-9,79.8,72.2,51.7,62.0,59.1,44.0,77,64,51,29.74,29.58,18,9,0,0.00
2013-4-10,49.9,39.6,36.3,42.0,35.1,31.0,88,84,74,29.95,29.74,17,6,0,0.47
2013-4-11,56.3,44.1,34.4,32.0,27.0,22.0,79,54,31,29.95,29.75,16,4,0,0.00
2013-4-12,64.7,48.8,38.6,35.0,29.6,26.0,70,51,26,30.01,29.80,13,2,0,0.00
2013-4-13,72.3,61.4,50.2,48.0,43.0,34.0,78,52,41,30.02,29.69,14,6,0,0.14
2013-4-14,80.9,68.6,57.2,57.0,48.7,45.0,65,51,33,29.69,29.43,23,9,0,0.00
2013-4-15,77.0,63.1,54.5,56.0,45.2,35.0,70,53,42,29.82,29.61,14,8,0,0.02
2013-4-16,60.7,54.1,51.0,51.0,46.4,42.0,86,75,66,29.95,29.78,14,6,0,0.00
2013-4-17,81.8,69.4,52.5,68.0,59.9,47.0,87,73,56,29.89,29.48,20,8,0,0.08
2013-4-18,69.1,65.1,63.5,61.0,60.8,60.0,90,86,76,29.53,29.46,12,4,0,1.42
2013-4-22,76.0,68.7,51.6,50.0,45.9,40.0,66,45,36,30.06,29.80,24,9,0,0.00
2013-4-23,67.6,45.7,37.0,53.0,38.9,-99.9,90,80,49,30.20,29.75,14,-5,0,0.06
2013-4-24,59.2,46.0,34.9,32.0,26.6,18.0,80,51,25,30.31,30.18,15,4,0,0.00
2013-4-25,71.1,45.8,38.9,32.0,8.3,-99.9,71,36,18,30.34,30.20,12,-160,0,0.00
2013-5-1,84.0,76.6,68.8,61.0,54.1,-99.9,66,48,38,29.97,29.85,15,-18,0,0.00
2013-5-2,67.6,44.4,36.0,53.0,37.6,33.0,88,78,58,30.37,29.98,19,8,0,0.15
2013-5-3,60.5,48.6,36.3,34.0,28.3,21.0,88,52,22,30.34,29.95,22,6,0,0.00
2013-5-4,48.5,44.8,39.8,43.0,38.1,32.0,86,78,56,30.02,29.87,14,4,0,0.11
2013-5-5,60.4,51.3,44.3,48.0,44.0,39.0,87,77,60,30.11,30.02,10,2,0,0.00
2013-5-6,70.6,56.5,48.0,52.0,48.7,45.0,90,77,48,30.10,29.97,7,2,0,0.00
2013-5-7,78.8,65.3,51.0,54.0,50.0,42.0,89,62,28,30.04,29.91,12,1,0,0.00
2013-5-8,83.4,71.2,58.9,59.0,53.0,48.0,74,54,36,29.96,29.80,15,5,0,0.03
2013-5-9,73.5,65.5,59.3,64.0,60.2,55.0,90,83,63,29.92,29.78,20,4,0,0.91
2013-5-10,74.0,65.6,58.9,63.0,56.2,51.0,92,74,47,30.02,29.86,17,3,0,1.32
2013-5-11,79.8,65.5,53.8,55.0,46.9,34.0,85,55,27,30.18,30.02,20,4,0,0.00
2013-5-12,73.0,61.8,49.2,44.0,36.7,30.0,58,42,23,30.25,30.08,10,1,0,0.00
2013-5-13,88.2,72.5,55.6,56.0,47.3,41.0,65,43,26,30.09,29.94,17,5,0,0.00
2013-5-14,89.9,78.3,65.6,55.0,50.2,45.0,54,38,24,29.98,29.84,22,7,0,0.00
2013-5-15,75.3,60.9,63.9,66.0,37.5,-99.9,90,60,43,29.89,29.74,20,-132,0,0.41
2013-5-16,75.6,66.3,62.9,64.0,57.9,-99.9,90,79,63,29.82,29.73,9,-20,0,0.00
2013-5-17,82.0,67.8,60.1,68.0,56.8,-99.9,92,76,60,29.86,29.79,9,-41,0,0.00
2013-5-18,87.6,78.2,70.8,72.0,69.5,67.0,90,76,58,29.81,29.66,19,5,0,0.00
2013-5-19,77.9,77.7,77.4,69.0,69.0,69.0,76,76,75,29.72,29.72,7,6,0,0.00
2013-6-3,80.5,73.5,58.6,64.0,59.9,55.0,88,63,51,29.97,29.79,10,3,0,0.00
2013-6-4,81.1,74.0,65.8,67.0,64.1,61.0,88,72,59,29.92,29.76,13,3,0,0.35
2013-6-5,84.1,73.8,65.8,67.0,64.4,62.0,91,74,52,29.92,29.78,13,3,0,1.02
2013-6-6,78.6,71.4,64.8,64.0,57.5,50.0,88,64,38,29.90,29.84,12,4,0,0.00
2013-6-7,82.6,71.9,61.0,57.0,53.6,47.0,78,55,32,29.94,29.84,11,2,0,0.00
2013-6-8,83.0,73.4,62.3,62.0,56.8,53.0,76,58,37,29.87,29.72,16,4,0,0.00
2013-6-9,89.0,79.3,69.1,63.0,57.9,51.0,74,51,27,29.83,29.71,12,3,0,0.00
2013-6-10,94.9,83.0,72.0,68.0,63.8,58.0,75,54,32,29.85,29.76,20,6,0,0.00
2013-6-11,94.5,85.5,74.6,70.0,66.3,61.0,72,54,33,29.88,29.79,20,6,0,0.00
2013-6-12,94.3,85.5,76.5,72.0,68.2,64.0,79,58,39,29.88,29.80,21,8,0,0.00
2013-6-13,94.7,84.4,77.2,71.0,68.5,66.0,77,60,42,29.94,29.83,7,2,0,0.00
2013-6-14,95.1,84.4,74.9,74.0,70.2,67.0,76,63,45,29.92,29.80,15,3,0,0.00
2013-6-15,87.0,78.9,73.5,74.0,70.8,67.0,85,77,58,29.92,29.86,16,4,0,0.02
2013-6-16,91.0,76.6,69.9,73.0,69.1,65.0,90,79,54,29.93,29.81,12,2,0,0.85
2013-6-17,79.9,72.8,67.3,69.0,65.7,64.0,90,79,60,29.93,29.78,13,2,0,0.59
2013-6-18,89.9,77.7,67.9,68.0,64.5,60.0,88,66,38,29.96,29.85,10,1,0,0.00
2013-6-19,86.1,78.0,67.4,68.0,65.2,62.0,85,66,46,29.96,29.86,15,2,0,0.00
2013-6-20,91.6,82.2,72.7,74.0,69.6,65.0,79,66,53,29.95,29.84,18,5,0,0.00
2013-6-21,93.2,84.1,76.7,72.0,69.0,65.0,80,62,40,29.96,29.87,17,6,0,0.00
2013-6-22,91.8,83.2,73.9,70.0,67.2,64.0,82,60,41,29.93,29.80,17,5,0,0.00
2013-6-23,92.3,84.0,76.5,71.0,68.4,65.0,79,61,42,29.87,29.78,21,8,0,0.00
2013-6-24,91.6,83.1,75.6,71.0,67.9,64.0,78,62,43,29.93,29.81,19,6,0,0.00
2013-6-25,89.5,83.0,76.5,71.0,69.4,68.0,79,65,50,29.84,29.72,21,7,0,0.00
2013-6-26,94.7,84.6,77.6,74.0,70.0,67.0,74,62,48,29.82,29.72,18,6,0,0.00
2013-6-27,98.5,86.5,76.5,77.0,71.8,62.0,85,63,44,29.86,29.76,11,2,0,0.00
2013-6-28,97.3,87.6,78.3,68.0,61.9,54.0,67,44,27,29.87,29.73,13,3,0,0.00
2013-6-29,93.2,83.3,72.5,59.0,54.5,49.0,61,39,24,29.84,29.73,17,4,0,0.00
2013-6-30,83.8,76.7,67.4,56.0,53.7,51.0,67,46,34,29.91,29.79,15,5,0,0.00
2013-7-1,86.1,75.1,65.5,58.0,51.8,44.0,73,47,26,29.99,29.91,15,4,0,0.00
2013-7-2,87.2,76.3,64.3,55.0,49.9,44.0,64,42,23,30.04,29.96,11,2,0,0.00
2013-7-3,85.9,75.9,62.4,58.0,50.5,46.0,70,43,26,30.04,29.92,9,1,0,0.00
2013-7-4,89.7,77.2,64.7,61.0,57.6,50.0,74,52,30,29.98,29.87,15,2,0,0.00
2013-7-5,91.8,79.3,66.3,64.0,60.9,54.0,80,55,28,29.94,29.82,12,2,0,0.00
2013-7-6,88.0,78.7,70.9,65.0,62.2,60.0,71,58,45,29.92,29.84,13,3,0,0.00
2013-7-7,93.2,83.0,72.0,67.0,64.3,60.0,74,55,34,29.95,29.86,13,3,0,0.00
2013-7-8,93.8,83.1,74.4,72.0,68.2,65.0,75,62,44,30.00,29.91,11,3,0,0.00
2013-7-9,98.0,88.0,77.4,69.0,68.2,66.0,73,53,36,29.98,29.85,16,5,0,0.00
2013-7-10,101.7,90.4,79.2,70.0,65.3,62.0,62,45,27,29.91,29.80,9,2,0,0.00
2013-7-11,100.7,88.0,76.7,72.0,69.3,64.0,79,56,35,29.90,29.79,7,1,0,0.00
2013-7-12,94.9,84.9,76.0,71.0,69.0,68.0,79,60,41,29.93,29.85,13,2,0,0.00
2013-7-13,94.5,84.1,74.2,69.0,63.8,60.0,74,52,36,29.96,29.83,12,3,0,0.00
2013-7-14,89.3,79.9,73.0,63.0,60.3,54.0,69,53,31,29.97,29.84,15,2,0,0.00
2013-7-15,80.1,72.9,65.8,68.0,64.0,61.0,90,74,59,30.10,29.96,13,3,0,0.60
2013-7-16,90.1,77.8,70.6,71.0,67.9,64.0,90,73,44,30.17,30.08,6,1,0,0.08
2013-7-17,93.2,83.3,73.0,71.0,68.2,65.0,86,63,40,30.22,30.09,9,1,0,0.00
2013-7-18,95.4,86.1,75.6,71.0,67.9,63.0,80,57,35,30.12,29.93,10,1,0,0.00
2013-7-19,96.6,86.2,75.4,70.0,68.1,65.0,80,57,36,29.95,29.81,10,2,0,0.00
2013-7-20,95.6,84.2,74.0,70.0,68.2,63.0,79,61,35,29.87,29.73,12,3,0,0.00
2013-7-21,90.1,78.3,71.8,75.0,71.0,67.0,91,79,57,29.86,29.73,11,2,0,0.60
2013-7-22,95.1,85.1,78.3,75.0,71.3,69.0,81,64,46,29.84,29.69,14,4,0,0.17
2013-7-23,100.2,89.8,79.6,73.0,70.8,69.0,73,55,37,29.82,29.68,11,3,0,0.00
2013-8-2,94.9,90.8,85.7,77.0,74.7,73.0,65,59,51,29.78,29.73,10,4,0,0.00
2013-8-3,85.3,79.8,72.8,73.0,71.1,69.0,89,75,60,29.97,29.78,12,3,0,0.42
2013-8-4,88.6,81.3,76.7,77.0,73.3,69.0,88,77,64,30.00,29.86,13,2,0,0.00
2013-8-5,98.5,85.8,75.6,73.0,71.6,69.0,86,65,40,29.90,29.72,19,4,0,0.00
2013-8-6,99.2,89.1,77.6,74.0,70.1,67.0,79,55,38,29.77,29.68,15,3,0,0.00
2013-8-7,95.9,86.9,79.4,77.0,71.9,69.0,76,62,46,29.80,29.71,17,3,0,0.00
2013-8-8,85.3,79.6,72.5,74.0,71.4,68.0,88,76,65,29.86,29.73,13,2,0,0.18
2013-8-9,87.4,77.7,70.8,73.0,69.9,68.0,91,78,56,29.97,29.81,10,3,0,0.45
2013-8-10,87.2,76.9,68.9,69.0,67.1,64.0,88,73,53,30.05,29.95,11,3,0,0.00
2013-8-11,90.1,80.0,73.2,72.0,70.0,68.0,86,72,51,30.01,29.92,3,0,0,0.00
2013-8-12,84.5,78.7,74.0,74.0,71.4,68.0,87,79,64,30.00,29.87,20,1,0,0.08
2013-8-13,83.4,75.4,70.9,72.0,69.5,67.0,91,82,63,29.98,29.89,12,1,0,0.73
2013-8-14,84.7,74.9,66.8,68.0,62.8,58.0,85,68,44,30.06,29.96,8,2,0,0.00
2013-8-15,82.6,72.6,63.7,62.0,60.3,57.0,83,66,47,30.05,29.92,12,1,0,0.00
2013-8-16,83.2,73.4,65.3,64.0,62.1,60.0,89,69,46,30.04,29.91,9,1,0,0.17
2013-8-17,82.0,73.4,64.0,62.0,59.2,56.0,83,63,42,30.08,29.98,11,2,0,0.00
2013-8-18,86.1,75.8,64.7,66.0,61.6,59.0,85,64,40,30.07,29.96,11,1,0,0.00
2013-8-19,86.7,77.5,67.8,67.0,64.4,61.0,86,65,46,30.04,29.92,10,2,0,0.00
2013-8-20,89.9,78.8,68.6,67.0,64.6,61.0,82,63,38,30.00,29.91,10,2,0,0.00
2013-8-21,93.4,81.2,69.4,68.0,65.4,61.0,86,61,34,30.01,29.94,11,2,0,0.00
2013-8-22,92.7,83.2,72.5,70.0,67.4,63.0,82,60,39,30.02,29.91,7,1,0,0.00
2013-8-23,93.2,82.6,74.9,71.0,67.8,66.0,77,62,41,29.98,29.88,12,1,0,0.00
2013-8-24,93.4,83.0,73.9,72.0,69.2,66.0,85,65,42,30.04,29.93,14,2,0,0.00
2013-8-25,93.6,83.9,74.4,73.0,69.7,67.0,84,64,42,30.11,30.02,10,2,0,0.00
2013-8-26,91.6,83.0,73.5,70.0,68.9,67.0,85,64,44,30.12,30.00,10,2,0,0.00
2013-8-27,91.8,82.4,72.7,69.0,66.6,64.0,76,60,42,30.04,29.93,13,3,0,0.00
2013-8-28,93.6,82.2,74.0,70.0,65.3,-99.9,85,61,43,29.99,29.91,13,-19,0,0.00
2013-8-29,98.0,86.7,77.0,71.0,68.0,64.0,77,56,34,29.98,29.88,10,1,0,0.00
2013-8-30,99.0,87.9,77.2,71.0,67.4,64.0,76,53,32,29.91,29.76,11,3,0,0.00
2013-8-31,100.4,89.1,79.0,70.0,67.2,64.0,66,50,31,29.81,29.69,10,2,0,0.00
2013-9-1,92.9,85.4,77.4,73.0,68.8,65.0,74,58,47,29.83,29.69,6,2,0,0.06
2013-9-2,90.1,81.1,73.0,71.0,62.1,56.0,80,55,31,29.94,29.81,10,3,0,0.00
2013-9-3,91.6,79.3,67.8,63.0,58.8,53.0,79,53,28,29.99,29.89,9,2,0,0.00
2013-9-4,93.4,80.3,67.1,65.0,61.2,57.0,76,54,30,30.05,29.95,6,0,0,0.00
2013-9-5,94.5,81.1,69.1,64.0,61.0,58.0,74,53,31,30.10,29.98,7,1,0,0.00
2013-9-6,94.3,80.6,69.4,64.0,59.7,-99.9,73,52,32,30.05,29.90,11,-9,0,0.00
2013-9-7,98.2,84.3,71.5,65.0,62.1,58.0,69,50,27,29.95,29.83,10,2,0,0.00
2013-9-8,97.1,86.6,76.5,66.0,63.5,59.0,64,48,28,29.89,29.78,13,2,0,0.00
2013-9-9,95.1,84.6,73.2,65.0,61.9,57.0,67,49,28,29.91,29.82,15,3,0,0.00
2013-9-10,93.6,83.3,75.1,65.0,62.1,58.0,67,50,32,30.02,29.88,13,2,0,0.00
2013-9-11,94.7,83.7,72.0,64.0,61.1,57.0,74,49,29,30.07,29.94,9,1,0,0.00
2013-9-12,97.1,82.6,74.9,68.0,66.0,61.0,76,59,32,30.02,29.91,13,2,0,0.00
2013-9-13,87.2,77.6,69.1,67.0,56.8,48.0,79,52,29,30.00,29.89,12,5,0,0.00
2013-9-14,84.7,73.6,62.0,59.0,54.2,51.0,72,52,35,29.99,29.88,12,2,0,0.00
2013-9-15,89.9,78.1,65.8,66.0,57.6,50.0,63,50,39,29.96,29.89,13,4,0,0.00
2013-9-16,85.9,77.1,71.5,67.0,65.6,63.0,84,69,47,30.12,29.94,11,2,0,0.09
2013-9-17,84.0,74.8,68.4,67.0,65.6,64.0,89,74,53,30.07,29.89,7,1,0,0.10
2013-9-18,92.1,80.6,73.3,69.0,67.1,64.0,81,65,42,29.93,29.80,15,4,0,0.07
2013-9-19,89.9,79.2,72.1,70.0,67.6,65.0,81,68,48,29.89,29.77,13,3,0,0.01
2013-9-20,72.3,69.0,62.4,67.0,60.6,53.0,91,76,52,29.95,29.86,13,3,0,0.48
2013-9-21,80.5,68.3,55.4,54.0,51.1,47.0,86,57,32,29.98,29.86,6,1,0,0.00
2013-9-22,79.4,67.6,55.3,52.0,48.2,43.0,82,53,29,29.93,29.78,11,1,0,0.00
2013-9-23,80.3,68.8,56.3,55.0,52.1,48.0,83,58,36,29.84,29.71,14,3,0,0.00
2013-9-24,83.0,72.1,62.6,56.0,53.9,51.0,74,55,35,29.84,29.79,14,4,0,0.00
2013-9-25,85.5,72.5,60.2,58.0,55.9,52.0,83,59,32,29.85,29.72,5,0,0,0.00
2013-9-26,91.8,76.7,63.7,60.0,57.6,54.0,80,55,28,29.84,29.73,14,4,0,0.00
2013-9-27,89.0,78.1,67.3,61.0,58.5,53.0,78,54,31,29.90,29.77,16,5,0,0.00
2013-9-28,78.8,68.9,60.1,67.0,60.7,56.0,91,76,57,30.03,29.77,12,4,0,1.11
2013-9-29,77.4,64.7,54.2,58.0,52.2,45.0,92,68,32,30.05,29.89,11,2,0,0.00
2013-9-30,82.6,68.3,54.2,63.0,54.3,47.0,86,64,29,29.89,29.76,11,2,0,0.00
2013-10-1,86.7,75.3,66.4,70.0,64.6,59.0,92,72,39,29.89,29.78,12,3,0,0.00
2013-10-2,85.1,76.6,69.8,70.0,67.4,65.0,91,75,53,29.94,29.79,13,3,0,0.00
2013-10-3,85.7,77.3,70.8,70.0,67.8,66.0,87,73,57,29.84,29.70,17,7,0,0.00
2013-10-4,87.0,78.7,72.5,69.0,67.0,64.0,86,69,48,29.80,29.72,16,7,0,0.00
2013-10-5,77.6,59.7,50.2,66.0,45.6,36.0,89,62,33,30.06,29.79,14,3,0,0.53
2013-10-6,67.4,57.8,49.4,44.0,39.2,33.0,74,52,36,30.02,29.95,14,3,0,0.00
2013-10-7,75.6,61.3,49.2,44.0,39.1,33.0,72,47,24,30.14,30.00,6,1,0,0.00
2013-10-8,74.7,62.7,51.3,50.0,46.5,41.0,81,58,30,30.09,29.97,14,3,0,0.00
2013-10-9,77.6,64.2,51.6,55.0,50.4,46.0,84,63,44,30.05,29.95,13,2,0,0.00
2013-10-10,79.8,67.2,55.7,58.0,53.8,49.0,84,64,44,30.02,29.82,11,4,0,0.00
2013-10-11,81.2,71.1,62.3,67.0,61.4,54.0,83,72,59,29.82,29.72,14,6,0,0.00
2013-10-12,74.9,67.5,58.3,67.0,55.8,50.0,85,68,46,30.09,29.78,12,5,0,0.00
2013-10-13,76.5,68.0,62.1,61.0,54.5,48.0,70,62,56,30.23,30.09,10,2,0,0.00
2013-10-14,66.1,63.0,58.7,63.0,57.2,51.0,92,82,63,30.14,29.86,12,3,0,0.80
2013-10-15,67.9,59.8,55.7,65.0,51.1,43.0,91,74,58,30.05,29.83,14,3,0,0.06
2013-10-16,61.3,53.4,45.2,45.0,40.3,38.0,77,62,45,30.14,30.00,12,3,0,0.00
2013-10-17,67.8,54.5,42.8,46.0,42.5,40.0,89,67,39,30.06,29.92,12,1,0,0.00
2013-10-18,57.0,48.9,40.9,46.0,42.5,38.0,89,79,63,30.13,29.96,12,4,0,0.07
2013-10-19,64.0,48.6,34.6,40.0,35.4,31.0,90,65,30,30.16,29.98,11,2,0,0.00
2013-10-20,69.6,56.7,43.9,43.0,38.6,34.0,78,54,28,29.98,29.80,23,4,0,0.00
2013-10-21,60.2,52.9,42.9,46.0,40.8,36.0,78,65,42,30.09,29.89,15,2,0,0.00
2013-10-22,59.9,45.7,42.6,41.0,37.8,36.0,80,75,49,30.08,30.01,7,2,0,0.00
2013-10-24,58.6,52.7,44.3,35.0,32.9,29.0,57,48,40,30.38,30.28,14,4,0,0.00
2013-10-25,59.3,48.0,37.2,39.0,31.8,28.0,73,56,34,30.46,30.20,12,3,0,0.00
2013-10-26,67.8,55.9,47.6,53.0,46.2,39.0,87,70,58,30.19,30.05,9,2,0,0.00
2013-10-27,68.4,54.9,41.2,52.0,35.7,-99.9,87,54,18,30.08,29.94,6,-10,0,0.00
2013-10-28,70.1,61.1,53.8,57.0,53.7,50.0,91,78,57,30.10,29.96,14,3,0,0.00
2013-10-29,74.2,68.4,62.0,66.0,62.8,57.0,87,82,74,30.02,29.87,15,7,0,0.01
2013-10-30,70.8,67.6,64.2,66.0,63.2,60.0,92,86,81,29.93,29.71,17,7,0,1.00
2013-10-31,70.8,62.9,52.8,64.0,53.7,43.0,92,74,46,29.75,29.50,21,4,0,0.33
2013-11-1,71.1,58.1,47.3,45.0,40.5,34.0,79,56,27,30.00,29.75,13,2,0,0.00
2013-11-2,62.0,52.8,45.5,40.0,33.3,27.0,64,50,28,30.23,30.00,15,3,0,0.00
2013-11-3,61.0,51.6,39.9,41.0,36.8,33.0,80,59,40,30.17,29.94,21,6,0,0.00
2013-11-4,64.2,56.9,51.4,52.0,48.1,41.0,86,73,60,30.06,29.91,23,8,0,0.02
2013-11-5,63.9,59.3,55.6,61.0,56.7,52.0,92,91,86,30.05,29.86,13,7,0,0.34
2013-11-6,63.5,46.4,37.9,60.0,38.4,33.0,91,74,53,30.36,29.88,14,4,0,0.41
2013-11-7,65.2,48.2,34.1,40.0,34.2,29.0,89,64,27,30.45,30.30,6,0,0,0.00
2013-11-8,66.9,54.4,41.2,39.0,35.3,30.0,78,52,25,30.30,30.01,23,7,0,0.00
2013-11-9,67.4,57.3,50.2,44.0,41.9,38.0,71,58,34,30.22,30.02,9,3,0,0.00
2013-11-10,69.4,58.4,49.6,46.0,43.9,42.0,79,61,37,30.33,30.21,6,1,0,0.00
2013-11-11,72.1,58.3,44.1,54.0,47.3,37.0,83,68,47,30.41,30.11,17,4,0,0.00
2013-11-12,44.2,35.3,30.0,37.0,18.4,12.0,75,52,32,30.78,30.41,17,6,0,0.00
2013-11-13,51.4,38.0,24.1,23.0,18.4,15.0,78,48,25,30.71,30.30,18,4,0,0.00
2013-11-14,53.9,44.4,33.7,33.0,24.2,20.0,61,46,30,30.30,29.99,16,6,0,0.00
2013-11-15,62.3,52.1,44.1,49.0,43.4,33.0,86,73,56,29.99,29.76,18,6,0,0.08
2013-11-16,74.2,65.4,53.9,63.0,57.6,50.0,90,76,57,29.76,29.50,23,12,0,0.00
2013-11-17,73.9,67.8,54.7,64.0,40.2,17.0,79,43,17,30.07,29.47,19,6,0,0.00
2013-11-18,64.8,53.9,44.6,36.0,26.5,20.0,57,37,19,30.24,30.05,13,2,0,0.00
2013-11-19,58.0,53.7,49.5,31.0,26.2,22.0,45,35,26,30.18,29.96,18,5,0,0.00
2013-11-20,61.0,54.5,46.4,45.0,34.3,27.0,60,47,36,29.97,29.82,19,8,0,0.00
2013-11-21,59.3,50.2,34.4,51.0,44.7,31.0,89,82,56,30.34,29.90,17,5,0,0.17
2013-11-22,33.8,31.9,30.1,31.0,26.8,24.0,88,81,73,30.56,30.33,19,8,0,0.02
2013-11-23,38.5,33.7,27.2,27.0,18.8,8.0,81,57,29,30.69,30.54,19,8,0,0.00
2013-11-24,31.0,26.7,22.4,16.0,12.5,9.0,64,56,48,30.70,30.35,15,3,0,0.00
2013-11-25,35.8,33.2,30.0,30.0,24.5,14.0,83,71,50,30.35,30.20,5,1,0,0.00
2013-11-26,47.7,38.0,29.8,29.0,24.2,11.0,77,59,38,30.38,30.16,17,5,0,0.00
2013-11-27,38.9,29.8,21.3,13.0,9.4,6.0,61,44,27,30.48,30.31,15,2,0,0.00
2013-11-28,56.6,40.9,27.3,28.0,21.3,13.0,61,47,33,30.42,30.27,15,3,0,0.00
2013-11-29,55.0,42.4,29.5,28.0,24.4,22.0,74,52,29,30.48,30.27,13,4,0,0.00
2013-11-30,60.9,49.2,40.2,46.0,38.2,28.0,86,67,54,30.27,30.06,14,4,0,0.00
2013-12-1,55.7,50.4,43.8,51.0,46.6,41.0,91,87,80,30.08,29.85,2,0,0,0.00
2013-12-2,59.3,50.6,43.9,48.0,45.5,41.0,91,83,62,29.85,29.62,9,1,0,0.00
2013-12-3,60.5,50.5,44.2,52.0,47.0,42.0,94,88,70,29.63,29.46,11,2,0,0.00
2013-12-4,47.6,39.4,30.1,44.0,31.9,20.0,89,75,67,30.02,29.58,14,6,0,0.00
2013-12-5,30.3,24.7,21.0,20.0,13.9,10.0,80,65,50,30.31,30.02,19,7,0,0.05
2013-12-6,21.3,18.9,14.8,16.0,12.5,3.0,86,76,57,30.61,30.27,15,7,0,0.03
2013-12-7,21.8,16.5,10.0,11.0,4.4,0.0,68,59,50,30.68,30.31,11,4,0,0.00
2013-12-8,30.1,26.3,21.9,27.0,21.2,11.0,89,81,64,30.30,30.00,6,2,0,0.00
2013-12-9,28.1,23.5,19.1,21.0,15.6,12.0,79,72,60,30.42,30.18,13,4,0,0.00
2013-12-10,34.6,24.4,14.0,19.0,14.5,10.0,83,67,47,30.47,30.25,11,3,0,0.00
2013-12-11,37.8,29.2,21.8,24.0,19.1,13.0,84,67,50,30.62,30.27,17,3,0,0.00
2013-12-12,42.3,31.1,18.9,26.0,19.5,12.0,77,63,49,30.61,30.23,11,3,0,0.00
2013-12-13,39.2,36.9,33.5,37.0,31.8,26.0,92,82,68,30.22,29.80,15,5,0,0.46
2013-12-14,39.8,34.7,27.3,38.0,28.7,22.0,92,79,61,30.27,29.82,17,4,0,0.00
2013-12-15,59.0,40.5,24.7,32.0,25.6,21.0,85,60,29,30.27,30.09,10,3,0,0.00
2013-12-16,68.1,51.0,38.5,32.0,29.5,28.0,66,46,23,30.12,30.01,11,4,0,0.00
2013-12-17,60.4,47.5,36.0,33.0,29.6,26.0,73,52,29,30.28,30.09,13,1,0,0.00
2013-12-18,68.4,52.2,38.8,41.0,32.8,27.0,66,50,28,30.24,29.86,22,6,0,0.00
2013-12-19,63.2,58.7,52.6,56.0,49.3,41.0,81,71,57,29.86,29.62,20,11,0,0.00
2013-12-20,62.7,39.1,28.7,57.0,32.2,21.0,85,76,67,29.95,29.61,17,5,0,0.11
2013-12-21,32.8,31.4,29.0,31.0,28.7,25.0,91,89,85,29.84,29.48,0,0,0,0.60
2013-12-22,31.9,29.4,27.0,30.0,24.9,22.0,91,83,77,30.39,29.76,0,0,0,0.00
2013-12-23,28.1,25.0,19.7,22.0,19.0,15.0,82,78,72,30.62,30.40,0,0,0,0.00
2013-12-24,42.8,28.4,15.2,32.0,21.7,11.0,86,77,61,30.61,30.19,15,2,0,0.00
2013-12-25,41.9,34.4,27.8,33.0,28.6,24.0,86,79,70,30.40,30.26,7,1,0,0.00
2013-12-26,51.4,37.4,24.5,34.0,27.6,22.0,90,71,39,30.40,30.27,9,2,0,0.00
2013-12-27,60.1,44.3,32.1,31.0,27.5,24.0,76,54,28,30.39,30.27,11,2,0,0.00
2013-12-28,57.8,46.7,35.6,37.0,32.4,28.0,77,59,41,30.26,29.89,11,4,0,0.00
2013-12-29,45.2,31.6,22.1,36.0,20.1,4.0,75,63,45,30.31,29.90,20,6,0,0.00
2013-12-30,37.9,26.5,14.9,16.0,9.5,2.0,63,50,37,30.37,30.25,5,1,0,0.00
2013-12-31,55.3,38.3,23.8,24.0,18.6,13.0,71,49,22,30.37,30.14,16,4,0,0.00
2014-1-1,53.5,38.7,18.4,33.0,25.4,13.0,78,60,44,30.26,29.86,19,6,0,0.00
2014-1-2,32.4,21.9,13.1,13.0,9.1,4.0,79,59,43,30.51,30.26,13,3,0,0.00